Location: Ellerstadt
(49.4644°N, 8.2615°E)
Time: 19:51:55
(UTC+00:00)

Vanguard 1 - Pass Details

Date: 21 June 2021
Orbit: 651 x 3832 km, 34.2° (Epoch: 27 July)

Event Time Altitude Azimuth Distance (km) Brightness Sun altitude
Rises 17:45:21 0° 197° (SSW) 7,509 14.6 15.0°
Reaches altitude 10° 17:51:48 10° 186° (S) 6,759 14.2 14.1°
Maximum altitude 18:08:07 25° 141° (SE) 5,641 13.5 11.6°
Drops below altitude 10° 18:23:02 10° 96° (E) 6,237 13.6 9.4°
Sets 18:28:28 0° 84° (E) 6,856 13.8 8.6°
